www.pogodaiklimat.ru

Погода и климат >> Архив погоды >> Южная Африка >> Порт-Эдвард


ПОГОДА в Порт-Эдварде

  • Прогноз погоды в Порт-Эдварде
  • Монитор погоды в Порт-Эдварде

АРХИВ ПОГОДЫ в Порт-Эдварде

Время (UTC), дата Ветер
(напр.,м/с)
 
Видим.   Явления Облачность Т
(С)
Тd
(С)
f
(%)
Тe
(С)
Тes
(С)
Комфортность P
(гПа)
Po
(гПа)
Тmin
(С)
Tmax
(С)
R
(мм)
R24
(мм)
S
(см)
12 14.08 ЮЗ 5 н/о н/о +22.1 +15.3 65 +26 +26 душно 1027.4 1025.8 +13.3 +22.8 0.2
15 14.08 ЮЗ 6 н/о н/о +21.2 +12.4 57 +23 +23 комфорт 1029.3 1027.7 +21.2 +22.8
18 14.08 З 4 н/о н/о +19.3 +10.6 57 +20 +20 1032.3 1030.7 +18.8 +22.8 0.2
21 14.08 З 3 н/о н/о +18.6 +11.2 62 +19 +19 1033.2 1031.6 +18.5 +22.8
00 15.08 З 3 н/о н/о +17.4 +10.6 64 +18 +18 1032.5 1030.9 +17.2 +22.8 0.2
03 15.08 СЗ 3 н/о н/о +15.5 +9.9 69 +15 +15 1031.7 1030.0 +15.5 +22.8
06 15.08 СЗ 3 н/о н/о +18.0 +10.4 61 +18 +18 1032.2 1030.6 +15.2 0.2
09 15.08 СВ 6 н/о н/о +21.9 +14.6 63 +25 +25 комфорт 1030.8 1029.2 +15.2 +22.4
12 15.08 СВ 6 н/о н/о +22.3 +15.2 64 +26 +26 жарко 1027.4 1025.8 +15.2 +22.6
15 15.08 СВ 7 н/о н/о +21.1 +15.5 70 +24 +24 комфорт 1025.8 1024.2 +21.1 +22.6
18 15.08 СВ 3 н/о н/о +18.2 +13.9 76 +19 +19 1025.7 1024.1 +18.2 +22.6
21 15.08 С 1 н/о н/о +14.9 +11.8 82 +15 +15 1024.9 1023.2 +14.9 +22.6
00 16.08 С 1 н/о н/о +13.0 +10.9 87 +13 +13 1022.6 1020.9 +13.0 +22.6
03 16.08 З 1 н/о н/о +12.9 +10.9 88 +13 +13 1021.2 1019.5 +11.9 +22.6
06 16.08 штиль 0 н/о н/о +17.4 +12.3 72 +17 +17 1021.1 1019.5 +11.9
09 16.08 Ю 2 н/о н/о +24.4 +14.0 52 +27 +27 жарко 1021.0 1019.4 +11.9 +24.5
12 16.08 СВ 4 н/о н/о +24.6 +17.2 63 +28 +28 душно 1016.6 1015.0 +11.9 +25.3
15 16.08 ЮЗ 6 н/о н/о +21.8 +17.6 77 +26 +26 душно 1019.9 1018.3 +21.8 +25.3
18 16.08 ЮЗ 5 н/о н/о +19.9 +15.2 74 +22 +22 комфорт 1023.0 1021.4 +19.9 +25.3
21 16.08 ЮЗ 4 н/о н/о +19.0 +13.0 68 +20 +20 1024.9 1023.3 +19.0 +25.3
00 17.08 З 4 н/о н/о +18.0 +10.7 62 +18 +18 1025.3 1023.7 +17.9 +25.3
03 17.08 З 4 н/о н/о +18.0 +9.2 56 +18 +18 1025.6 1024.0 +17.8 +25.3
06 17.08 ЮЗ 3 н/о н/о +19.5 +10.0 54 +21 +21 комфорт 1027.9 1026.3 +17.8
09 17.08 Ю 5 н/о н/о +17.9 +14.2 79 +17 +17 1029.7 1028.1 +17.8 +20.4
12 17.08 Ю 4 н/о н/о +17.1 +15.2 89 +17 +17 1028.6 1027.0 +16.6 +20.4 2
15 17.08 ЮВ 2 н/о н/о +16.9 +14.0 83 +17 +17 1028.9 1027.3 +16.3 +20.4
18 17.08 З 2 н/о н/о +15.8 +13.4 86 +16 +16 1030.0 1028.3 +15.8 +20.4 3
21 17.08 С 3 н/о н/о +15.5 +13.7 89 +15 +15 1029.2 1027.5 +15.5 +20.4
00 18.08 СВ 2 н/о н/о +16.0 +14.3 90 +16 +16 1027.4 1025.8 +15.3 +20.4 4
03 18.08 С 3 н/о н/о +15.7 +14.0 90 +15 +15 1025.1 1023.5 +15.3 +20.4
06 18.08 СВ 4 н/о н/о +17.1 +14.9 87 +17 +17 1024.1 1022.5 +15.3 5
09 18.08 СВ 5 н/о н/о +20.5 +14.9 70 +23 +23 комфорт 1022.3 1020.7 +15.3 +21.0
12 18.08 СВ 7 н/о н/о +21.4 +15.7 70 +25 +25 комфорт 1018.5 1016.9 +15.3 +21.6
15 18.08 СВ 5 н/о н/о +20.6 +17.0 80 +24 +24 комфорт 1016.9 1015.3 +20.6 +21.6
18 18.08 С 5 н/о н/о +20.1 +17.1 83 +23 +23 комфорт 1017.5 1015.9 +20.1 +21.6
21 18.08 С 4 н/о н/о +19.3 +16.5 84 +21 +21 комфорт 1015.6 1014.0 +19.3 +21.6
00 19.08 С 3 н/о н/о +18.3 +15.9 86 +19 +19 1013.6 1012.0 +18.0 +21.6
03 19.08 ЮЗ 4 н/о н/о +18.3 +14.2 77 +19 +19 1016.7 1015.1 +17.6 +21.6
06 19.08 ЮЗ 6 н/о н/о +19.3 +12.8 66 +20 +20 1021.2 1019.6 +17.6
09 19.08 ЮЗ 7 н/о н/о +20.1 +12.4 61 +21 +21 комфорт 1023.0 1021.4 +17.6 +21.6
12 19.08 ЮЗ 7 н/о н/о +20.8 +12.3 58 +23 +23 комфорт 1022.4 1020.8 +17.6 +21.6
15 19.08 ЮЗ 9 н/о н/о +20.0 +12.3 61 +21 +21 комфорт 1024.5 1022.9 +20.0 +21.6
18 19.08 Ю 7 н/о н/о +19.5 +13.3 67 +20 +20 1027.4 1025.8 +19.5 +21.6
21 19.08 ЮЗ 4 н/о н/о +15.9 +13.0 83 +15 +15 1029.8 1028.1 +15.4 +21.6
00 20.08 З 3 н/о н/о +14.5 +7.8 64 +14 +14 1029.7 1028.0 +14.4 +21.6 1
03 20.08 З 4 н/о н/о +15.6 +6.1 53 +15 +15 1029.7 1028.0 +14.4 +21.6
06 20.08 ЮЗ 4 н/о н/о +17.3 +6.6 49 +17 +17 1031.0 1029.4 +14.4 1
09 20.08 Ю 8 н/о н/о +19.7 +10.8 56 +20 +20 1031.7 1030.1 +14.4 +20.7
12 20.08 Ю 6 н/о н/о +20.0 +12.3 61 +21 +21 комфорт 1030.5 1028.9 +14.4 +20.7
15 20.08 Ю 4 н/о н/о +19.3 +13.5 69 +21 +21 комфорт 1030.7 1029.1 +19.3 +20.7
18 20.08 З 2 н/о н/о +17.7 +12.8 73 +18 +18 1031.9 1030.3 +17.7 +20.7
21 20.08 З 2 н/о н/о +17.4 +13.3 77 +18 +18 1032.4 1030.8 +17.4 +20.7
00 21.08 СЗ 2 н/о н/о +16.2 +12.6 79 +16 +16 1032.0 1030.3 +15.9 +20.7
03 21.08 СЗ 2 н/о н/о +15.0 +11.6 80 +15 +15 1031.6 1029.9 +15.0 +20.7
06 21.08 СЗ 3 н/о н/о +17.6 +11.9 69 +18 +18 1032.0 1030.4 +14.4
09 21.08 СВ 5 н/о н/о +21.5 +14.9 66 +25 +25 комфорт 1031.3 1029.7 +14.4 +22.0

 

Местоположение метеостанции Порт-Эдвард (Южная Африка): широта -31.06 долгота 30.23 высота над уровнем моря 12 м.

В архиве по умолчанию представлена погода в Порт-Эдварде за последнюю неделю. Архивные данные за месяц целиком и за предыдущие месяцы, начиная с января 2011 года, Вы можете получить, выбрав интересующий диапазон дат из раскрывающегося списка и нажав кнопку "Ввод!".


*Определитесь, кто Вы:
робот инопланетянин человек

Внимание! Время в таблицах - всемирное. Для получения местного времени необходимо прибавить поправку, которая равна 2 ч.

Смотрите также архив погоды в соседних городах и на ближайших метеорологических станциях:

Погода в Маргите (Южная Африка) (25 км)
Погода в Паддоке (Южная Африка) (35 км)
Погода в Пеннингтоне (Южная Африка) (87 км)
Погода в Порт Сент-Джон (Южная Африка) (91 км)
Погода в Кокстаде (Южная Африка) (101 км)
Погода в Иксопо (Южная Африка) (102 км)
Погода в Дурбане (Южная Африка) (140 км)
Погода в Коффи-Бей (Южная Африка) (144 км)
Погода в Умтате (Южная Африка) (157 км)
Погода в Питермарицбург аэропорту (Южная Африка) (158 км)

Пояснения к столбцам:

Ветер - указаны скорость ветра в м/с - средняя за 10 мин, порывы в срок и между сроками (в фигурных скобках) и направление, откуда дует ветер: С - северный, СВ - северо-восточный, В - восточный, ЮВ - юго-восточный, Ю - южный, ЮЗ - юго-западный, З - западный, СЗ - северо-западный.
Видимость - горизонтальная дальность видимости в метрах или километрах. При видимости от 1 до 10 км при отсутствии осадков обычно наблюдается дымка, при ухудшении видимости до 1 км и менее - туман. В сухую погоду видимость может ухудшаться дымом, пылью или мглою.
Явления - указаны атмосферные явления, наблюдавшиеся в срок или в последний час перед сроком; фигурными скобками обозначены явления, наблюдавшиеся между сроками (за 1-3 часа до срока); квадратными скобками обозначены град или гололедные отложения с указанием их диаметра в мм.
Облачность - указаны через наклонную черту общая и нижняя облачность в баллах и высота нижней границы облаков в метрах; квадратными скобками обозначены формы облаков: Ci - перистые, Cs - перисто-слоистые, Cc - перисто-кучевые, Ac - высококучевые, As - высокослоистые, Sc - слоисто-кучевые, Ns - слоисто-дождевые, Cu - кучевые, Cb - кучево-дождевые. Подробнее классификацию облаков см. в Атласе облаков (PDF).
T - Температура воздуха - температура, измеренная на высоте 2 м над землей.
Td - Температура точки росы - температура, при понижении до которой содержащийся в воздухе водяной пар достигнет насыщения.
f - Относительная влажность воздуха - влажноcть воздуха, измеренная на высоте 2 м над землей.
Te - Эффективная температура - температура, которую ощущает одетый по сезону человек в тени. Характеристика душности погоды. При расчете учитывается влияние влажности воздуха и скорости ветра на теплоощущения человека.
Tes - Эффективная температура на солнце - температура, которую ощущает человек, с поправкой на солнечный нагрев. Характеристика знойности погоды. Зависит от высоты солнца над горизонтом, облачности и скорости ветра. Ночью, в пасмурную погоду, а также при ветре 12 м/с и более поправка равна нулю.
P - Атмосферное давление - приведенное к уровню моря атмосферное давление.
Po - Атмосферное давление - измеренное на уровне метеостанции атмосферное давление.
Tmin - Минимальная температура - минимум температуры воздуха на высоте 2 м над землей.
Tmax - Максимальная температура - максимум температуры воздуха на высоте 2 м над землей.
R - Количество осадков - Количество выпавших осадков за период времени, мм. При наведении курсора мыши на число - период времени, за который выпало указанное количество осадков.
R24 - Количество осадков - Количество выпавших осадков за 24 часа, мм.
S - Снежный покров - Высота снежного покрова, см. При наведении курсора мыши на число - состояние снежного покрова и степень покрытия местности в баллах.